Location: Demmingen
(48.6757°N, 10.4375°E)
Time: 18:14:47
(UTC+00:00)

Cosmos 1745 Rocket - Pass Details

Date: 12 August 2024
Orbit: 952 x 997 km, 83.0° (Epoch: 11 September)

Event Time Altitude Azimuth Distance (km) Brightness Sun altitude
Rises 01:40:43 0° 355° (N) 3,640 7.8 -19.5°
Reaches altitude 10° 01:43:24 10° 3° (N) 2,691 7.1 -19.3°
Maximum altitude 01:49:09 40° 72° (ENE) 1,374 5.2 -18.7°
Drops below altitude 10° 01:54:54 10° 141° (SE) 2,692 6.2 -18.1°
Sets 01:57:34 0° 149° (SSE) 3,640 6.8 -17.9°
